Radiation Dose at Monitoring Post of Fukushima Daini Nuclear Power Station
Date,Time,MP-1(microSv/h),MP-2(microSv/h),MP-3(microSv/h),MP-4(microSv/h),MP-5(microSv/h),MP-6(microSv/h),MP-7(microSv/h),Wind Direction,Wind Velocity(m/s),Rain
2017/01/31,00:00,0.391,0.234,0.403,0.372,0.337,0.194,0.166,north,6.5,Yes
2017/01/31,00:10,0.392,0.236,0.405,0.375,0.339,0.195,0.166,north,5.5,Yes
2017/01/31,00:20,0.392,0.238,0.404,0.375,0.339,0.197,0.167,north,6.5,Yes
2017/01/31,00:30,0.392,0.238,0.402,0.374,0.339,0.196,0.168,north,4.2,No
2017/01/31,00:40,0.393,0.236,0.402,0.373,0.338,0.197,0.167,north,3.2,No
2017/01/31,00:50,0.393,0.236,0.403,0.375,0.338,0.195,0.168,north-northwest,2.3,No
2017/01/31,01:00,0.391,0.235,0.404,0.374,0.337,0.195,0.166,northwest,1.7,No
2017/01/31,01:10,0.390,0.233,0.402,0.371,0.337,0.194,0.166,north-northwest,3.4,No
2017/01/31,01:20,0.390,0.234,0.401,0.373,0.338,0.194,0.166,north-northwest,6.6,No
2017/01/31,01:30,0.391,0.232,0.403,0.372,0.336,0.193,0.166,northwest,5.3,No
2017/01/31,01:40,0.391,0.232,0.401,0.372,0.336,0.194,0.165,north-northwest,9.3,No
2017/01/31,01:50,0.389,0.233,0.402,0.372,0.336,0.193,0.166,north-northwest,10.4,No
2017/01/31,02:00,0.388,0.232,0.401,0.370,0.336,0.194,0.165,north-northwest,9.8,No
2017/01/31,02:10,0.388,0.233,0.401,0.373,0.337,0.193,0.164,north-northwest,10.2,No
2017/01/31,02:20,0.389,0.232,0.402,0.372,0.336,0.194,0.165,north-northwest,12.8,No
2017/01/31,02:30,0.389,0.231,0.400,0.371,0.336,0.192,0.165,north-northwest,8.4,No
2017/01/31,02:40,0.388,0.231,0.402,0.370,0.336,0.192,0.165,north-northwest,8.4,No
2017/01/31,02:50,0.388,0.232,0.401,0.372,0.335,0.192,0.165,north,8.3,No
2017/01/31,03:00,0.389,0.231,0.402,0.372,0.337,0.191,0.165,north-northwest,11.3,No
2017/01/31,03:10,0.389,0.231,0.401,0.372,0.337,0.192,0.164,north-northwest,8.4,No
2017/01/31,03:20,0.388,0.233,0.402,0.370,0.338,0.192,0.164,north-northwest,10.5,No
2017/01/31,03:30,0.388,0.231,0.401,0.371,0.335,0.192,0.164,north-northwest,10.0,No
2017/01/31,03:40,0.389,0.232,0.402,0.372,0.336,0.192,0.165,north-northwest,10.7,No
2017/01/31,03:50,0.388,0.231,0.400,0.371,0.337,0.191,0.164,north-northwest,11.2,No
2017/01/31,04:00,0.389,0.232,0.401,0.371,0.336,0.192,0.164,north-northwest,10.6,No
2017/01/31,04:10,0.389,0.232,0.401,0.372,0.336,0.192,0.164,north-northwest,12.4,No
2017/01/31,04:20,0.388,0.233,0.401,0.371,0.336,0.192,0.165,north-northwest,9.8,No
2017/01/31,04:30,0.388,0.230,0.399,0.371,0.335,0.193,0.164,north-northwest,9.4,No
2017/01/31,04:40,0.390,0.230,0.401,0.371,0.336,0.192,0.164,north,8.9,No
2017/01/31,04:50,0.389,0.231,0.401,0.372,0.336,0.193,0.166,north-northwest,8.9,No
2017/01/31,05:00,0.387,0.232,0.401,0.369,0.337,0.192,0.164,north-northwest,10.7,No
2017/01/31,05:10,0.388,0.232,0.402,0.371,0.337,0.192,0.165,north,10.7,No
2017/01/31,05:20,0.388,0.232,0.402,0.373,0.335,0.192,0.165,north-northwest,10.7,No
2017/01/31,05:30,0.388,0.230,0.403,0.371,0.336,0.192,0.163,north,10.0,No
2017/01/31,05:40,0.388,0.231,0.402,0.371,0.336,0.191,0.163,north,10.1,No
2017/01/31,05:50,0.388,0.231,0.401,0.372,0.335,0.192,0.164,north-northwest,9.2,No
2017/01/31,06:00,0.389,0.231,0.401,0.371,0.335,0.193,0.165,north,8.4,No
2017/01/31,06:10,0.387,0.230,0.401,0.371,0.335,0.193,0.164,north,7.4,No
2017/01/31,06:20,0.389,0.231,0.402,0.371,0.335,0.193,0.165,north-northwest,5.3,No
2017/01/31,06:30,0.389,0.231,0.399,0.370,0.337,0.192,0.164,north-northwest,6.2,No
2017/01/31,06:40,0.390,0.233,0.400,0.370,0.336,0.191,0.164,north-northwest,5.6,No
2017/01/31,06:50,0.388,0.230,0.399,0.373,0.334,0.191,0.164,north-northwest,5.7,No
2017/01/31,07:00,0.389,0.229,0.401,0.371,0.337,0.191,0.165,north-northwest,5.8,No
2017/01/31,07:10,0.388,0.233,0.401,0.370,0.336,0.193,0.164,north-northwest,4.5,No
2017/01/31,07:20,0.390,0.231,0.401,0.370,0.336,0.192,0.164,north-northwest,4.7,No
2017/01/31,07:30,0.388,0.231,0.399,0.370,0.336,0.191,0.165,north-northwest,4.0,No
2017/01/31,07:40,0.388,0.229,0.400,0.370,0.336,0.192,0.164,northwest,2.8,No
2017/01/31,07:50,0.388,0.232,0.401,0.371,0.336,0.192,0.164,northwest,3.6,No
2017/01/31,08:00,0.389,0.231,0.402,0.369,0.336,0.192,0.164,northwest,3.2,No
2017/01/31,08:10,0.389,0.231,0.401,0.370,0.337,0.192,0.164,north-northwest,3.2,No
2017/01/31,08:20,0.390,0.232,0.401,0.371,0.336,0.193,0.165,northwest,2.2,No
2017/01/31,08:30,0.388,0.232,0.401,0.370,0.335,0.192,0.163,northwest,1.3,No
2017/01/31,08:40,0.388,0.230,0.402,0.370,0.335,0.192,0.163,north-northeast,1.4,No
2017/01/31,08:50,0.389,0.229,0.402,0.371,0.337,0.192,0.165,northeast,1.8,No
2017/01/31,09:00,0.390,0.231,0.399,0.371,0.335,0.191,0.164,north,0.9,No
2017/01/31,09:10,0.388,0.230,0.401,0.369,0.334,0.191,0.165,north,1.5,No
2017/01/31,09:20,0.389,0.229,0.400,0.371,0.334,0.191,0.165,north-northwest,1.6,No
2017/01/31,09:30,0.386,0.228,0.401,0.371,0.335,0.190,0.165,west,1.4,No
2017/01/31,09:40,0.389,0.227,0.400,0.368,0.335,0.191,0.164,north-northwest,1.4,No
2017/01/31,09:50,0.388,-,0.401,0.370,0.335,0.192,0.164,west-southwest,0.7,No
2017/01/31,10:00,0.387,-,0.399,0.368,0.336,0.192,0.163,south-southeast,2.7,No
2017/01/31,10:10,0.385,-,0.402,0.371,0.338,0.192,0.165,south,4.0,No
2017/01/31,10:20,0.388,-,0.400,0.373,0.335,0.192,0.164,south-southeast,2.6,No
2017/01/31,10:30,0.386,-,0.402,0.370,0.337,0.192,0.164,southeast,1.7,No
2017/01/31,10:40,0.385,-,0.401,0.372,0.337,0.192,0.164,southeast,2.6,No
2017/01/31,10:50,0.386,-,0.402,0.371,0.335,0.192,0.165,south-southeast,5.3,No
2017/01/31,11:00,0.385,-,0.401,0.371,0.336,0.193,0.166,southeast,4.1,No
2017/01/31,11:10,0.388,-,0.399,0.371,0.336,0.192,0.165,south,3.9,No
2017/01/31,11:20,0.386,-,0.400,0.371,0.335,0.192,0.164,south,3.4,No
2017/01/31,11:30,0.386,-,0.401,0.373,0.338,0.193,0.164,west-southwest,5.6,No
2017/01/31,11:40,0.388,-,0.400,0.370,0.336,0.192,0.164,west-northwest,5.6,No
2017/01/31,11:50,0.387,-,0.401,0.368,0.336,0.192,0.165,west-northwest,7.1,No
2017/01/31,12:00,0.387,-,0.398,0.371,0.337,0.192,0.163,west,9.0,No
2017/01/31,12:10,0.388,-,0.399,0.370,0.336,0.192,0.164,west-northwest,8.2,No
2017/01/31,12:20,0.386,-,0.401,0.372,0.338,0.192,0.165,west-northwest,7.3,No
2017/01/31,12:30,0.387,-,0.399,0.369,0.335,0.192,0.166,west-northwest,8.3,No
2017/01/31,12:40,0.390,-,0.398,0.370,0.336,0.193,0.164,west,8.6,No
2017/01/31,12:50,0.387,-,0.399,0.370,0.336,0.192,0.164,west-northwest,8.4,No
2017/01/31,13:00,0.387,-,0.399,0.368,0.336,0.193,0.165,west-northwest,9.9,No
2017/01/31,13:10,0.388,-,0.398,0.372,0.336,0.193,0.165,west,7.7,No
2017/01/31,13:20,0.389,-,0.398,0.370,0.336,0.192,0.165,west-northwest,8.2,No
2017/01/31,13:30,0.389,-,0.401,0.371,0.335,0.193,0.165,west-northwest,9.7,No
2017/01/31,13:40,0.389,-,0.399,0.371,0.335,0.193,0.165,west,7.8,No
2017/01/31,13:50,0.388,-,0.401,0.372,0.335,0.192,0.164,west,11.8,No
2017/01/31,14:00,0.388,-,0.402,0.371,0.336,0.193,0.164,west,8.4,No
2017/01/31,14:10,0.390,-,0.398,0.372,0.337,0.192,0.164,west-northwest,6.7,No
2017/01/31,14:20,0.388,-,0.403,0.372,0.339,0.193,0.166,west-northwest,6.7,No
2017/01/31,14:30,0.388,-,0.401,0.372,0.336,0.193,0.165,northwest,7.1,No
2017/01/31,14:40,0.390,-,0.401,0.373,0.338,0.192,0.165,west-northwest,5.7,No
2017/01/31,14:50,0.390,-,0.402,0.372,0.339,0.191,0.165,west-northwest,5.8,No
2017/01/31,15:00,0.389,-,0.401,0.373,0.337,0.192,0.166,west-northwest,4.1,No
2017/01/31,15:10,0.389,-,0.400,0.374,0.337,0.193,0.165,west-northwest,4.4,No
2017/01/31,15:20,0.391,-,0.401,0.371,0.340,0.192,0.165,west-northwest,3.9,No
2017/01/31,15:30,0.389,-,0.403,0.371,0.336,0.193,0.165,west,6.8,No
2017/01/31,15:40,0.391,-,0.401,0.374,0.336,0.193,0.165,west-northwest,8.2,No
2017/01/31,15:50,0.389,-,0.400,0.373,0.337,0.192,0.166,west-northwest,7.5,No
2017/01/31,16:00,0.390,-,0.401,0.372,0.338,0.193,0.165,west,7.8,No
2017/01/31,16:10,0.389,-,0.402,0.373,0.338,0.192,0.165,west-northwest,7.0,No
2017/01/31,16:20,0.389,-,0.401,0.372,0.338,0.192,0.164,west,9.0,No
2017/01/31,16:30,0.390,-,0.401,0.372,0.337,0.192,0.164,west,8.3,No
2017/01/31,16:40,0.390,-,0.403,0.372,0.336,0.192,0.165,west-northwest,7.4,No
2017/01/31,16:50,0.389,-,0.404,0.373,0.338,0.191,0.164,west-northwest,6.2,No
2017/01/31,17:00,0.390,-,0.403,0.375,0.337,0.193,0.164,west-northwest,5.8,No
2017/01/31,17:10,0.390,0.230,0.402,0.371,0.337,0.193,0.165,west,7.5,No
2017/01/31,17:20,0.390,0.232,0.403,0.373,0.337,0.193,0.165,west-northwest,8.1,No
2017/01/31,17:30,0.391,0.230,0.401,0.373,0.337,0.193,0.165,west,6.1,No
2017/01/31,17:40,0.390,0.231,0.401,0.373,0.336,0.193,0.166,west,6.3,No
2017/01/31,17:50,0.389,0.231,0.400,0.372,0.337,0.193,0.166,west,5.8,No
2017/01/31,18:00,0.390,0.232,0.403,0.372,0.337,0.193,0.165,west-northwest,5.3,No
2017/01/31,18:10,0.390,0.233,0.401,0.372,0.337,0.193,0.165,west-northwest,5.9,No
2017/01/31,18:20,0.391,0.230,0.401,0.374,0.336,0.193,0.164,west-northwest,4.1,No
2017/01/31,18:30,0.389,0.232,0.401,0.373,0.336,0.193,0.165,west-northwest,7.1,No
2017/01/31,18:40,0.391,0.231,0.401,0.371,0.337,0.194,0.165,west-northwest,6.2,No
2017/01/31,18:50,0.390,0.231,0.402,0.373,0.337,0.193,0.165,west-northwest,4.2,No
2017/01/31,19:00,0.391,0.231,0.403,0.373,0.336,0.193,0.165,west-northwest,3.9,No
2017/01/31,19:10,0.391,0.232,0.402,0.373,0.338,0.193,0.165,northwest,5.6,No
2017/01/31,19:20,0.389,0.232,0.401,0.371,0.338,0.192,0.164,northwest,5.3,No
2017/01/31,19:30,0.392,0.231,0.402,0.373,0.337,0.192,0.165,northwest,5.8,No
2017/01/31,19:40,0.390,0.232,0.402,0.373,0.336,0.192,0.166,northwest,6.4,No
2017/01/31,19:50,0.391,0.231,0.401,0.373,0.337,0.193,0.166,west,7.4,No
2017/01/31,20:00,0.389,0.233,0.401,0.374,0.337,0.192,0.165,northwest,7.5,No
2017/01/31,20:10,0.391,0.232,0.402,0.373,0.337,0.193,0.165,west-northwest,7.3,No
2017/01/31,20:20,0.390,0.232,0.401,0.374,0.338,0.192,0.165,west-northwest,6.4,No
2017/01/31,20:30,0.390,0.233,0.400,0.373,0.336,0.193,0.165,west-northwest,8.4,No
2017/01/31,20:40,0.390,0.231,0.400,0.372,0.337,0.193,0.164,west-northwest,6.9,No
2017/01/31,20:50,0.390,0.232,0.402,0.372,0.337,0.192,0.165,west-northwest,6.4,No
2017/01/31,21:00,0.390,0.233,0.402,0.373,0.336,0.191,0.165,west,7.8,No
2017/01/31,21:10,0.390,0.232,0.403,0.373,0.336,0.192,0.165,west,7.3,No
2017/01/31,21:20,0.390,0.232,0.401,0.372,0.336,0.193,0.166,west-northwest,7.0,No
2017/01/31,21:30,0.389,0.232,0.402,0.373,0.336,0.192,0.164,west-northwest,9.4,No
2017/01/31,21:40,0.390,0.232,0.401,0.373,0.335,0.193,0.165,west-northwest,7.5,No
2017/01/31,21:50,0.391,0.232,0.402,0.373,0.336,0.193,0.165,west,6.1,No
2017/01/31,22:00,0.390,0.230,0.402,0.373,0.335,0.193,0.165,west-northwest,4.6,No
2017/01/31,22:10,0.388,0.231,0.399,0.372,0.338,0.193,0.165,west-northwest,3.9,No
2017/01/31,22:20,0.391,0.231,0.400,0.373,0.337,0.193,0.165,west-northwest,3.9,No
2017/01/31,22:30,0.390,0.232,0.405,0.373,0.336,0.192,0.165,west-northwest,3.6,No
2017/01/31,22:40,0.389,0.231,0.403,0.372,0.336,0.192,0.166,northwest,4.8,No
2017/01/31,22:50,0.389,0.233,0.401,0.372,0.337,0.192,0.166,northwest,7.2,No
2017/01/31,23:00,0.390,0.232,0.401,0.373,0.336,0.192,0.165,northwest,7.9,No
2017/01/31,23:10,0.390,0.231,0.403,0.375,0.337,0.193,0.165,northwest,9.5,No
2017/01/31,23:20,0.390,0.231,0.402,0.373,0.335,0.193,0.165,north-northwest,7.3,No
2017/01/31,23:30,0.390,0.233,0.403,0.371,0.337,0.194,0.164,northwest,7.5,No
2017/01/31,23:40,0.389,0.232,0.402,0.374,0.336,0.193,0.165,northwest,7.1,No
2017/01/31,23:50,0.391,0.233,0.403,0.373,0.337,0.192,0.164,northwest,4.8,No
